Theta_e
313 314 314 316 316 316 314 314 313 313 313 314 315 319 318 322 328 323 320 324 324 319 321 328 324 327 324 316 317 320 327 331 331 327 327 324 327 326 327 330 330 330 332 333 333
313 313 314 315 315 316 313 313 315 315 315 315 315 320 319 322 326 324 325 325 323 320 316 322 322 319 320 317 318 320 329 330 329 327 322 324 327 326 329 330 332 331 334 333 332
311 312 312 314 314 314 315 313 313 313 315 315 315 319 319 323 323 324 325 325 320 320 322 320 322 322 320 319 318 321 322 331 330 326 320 324 325 325 328 331 330 331 336 332 331
310 310 311 311 312 311 312 313 313 313 312 314 314 319 322 321 324 323 324 324 322 317 320 320 319 323 324 323 321 320 322 325 329 319 319 323 325 326 327 329 328 328 334 332 330
310 309 310 310 311 310 311 315 314 312 310 313 315 316 320 322 321 322 322 323 321 318 319 321 324 322 325 322 322 322 320 322 323 318 317 320 325 325 325 322 324 329 334 331 330
311 309 310 309 310 309 310 313 315 313 311 315 315 315 319 322 319 321 321 322 323 323 320 321 323 322 323 326 324 323 321 319 319 317 317 319 321 323 324 321 326 333 332 330 331
312 310 309 309 309 308 311 313 313 311 310 315 315 315 318 319 320 320 320 321 322 324 324 322 322 326 323 326 325 323 326 321 317 316 317 316 318 320 322 321 325 332 331 331 332
312 310 309 309 309 308 310 311 310 309 311 315 315 315 317 318 319 318 318 319 321 323 324 326 323 326 326 324 325 328 325 327 318 316 316 316 318 317 315 322 323 327 328 331 331
312 311 309 309 309 307 310 310 310 310 309 310 314 314 316 316 319 319 318 318 316 315 319 325 325 327 326 330 330 329 334 329 326 317 316 315 318 317 316 321 322 325 326 329 329
311 311 309 309 309 307 309 308 309 310 311 313 313 316 313 315 317 319 319 318 315 314 318 320 319 327 329 331 335 333 333 331 331 318 316 315 316 320 316 318 320 322 324 327 328
311 311 310 310 309 307 307 308 308 309 311 312 312 312 314 315 316 318 319 316 315 318 322 318 325 329 331 330 330 331 330 333 329 326 318 319 317 319 315 316 318 318 322 324 328
310 310 310 309 309 308 307 307 307 311 311 309 310 312 312 315 318 316 316 319 318 322 317 319 325 324 327 327 328 330 336 332 328 321 320 321 321 321 320 315 317 318 319 323 324
311 310 309 309 308 308 307 307 309 309 308 308 311 310 313 313 316 316 317 318 320 318 320 324 322 321 324 327 331 331 333 336 335 318 317 315 320 324 324 320 315 317 318 319 322
311 310 309 308 307 307 307 305 308 307 309 306 308 311 312 314 315 315 315 319 315 319 319 320 315 321 323 323 328 333 329 333 331 324 332 318 337 331 326 324 315 314 315 316 318
311 310 309 307 305 307 306 307 307 307 306 305 311 313 313 314 316 318 316 314 313 312 314 316 316 317 322 323 324 331 319 325 328 331 329 328 321 327 327 326 323 316 313 314 316
310 309 308 305 305 306 307 306 306 310 305 313 315 315 315 315 316 316 316 311 311 312 310 311 309 312 316 317 319 318 320 325 321 328 331 330 325 324 326 326 325 321 315 313 313
310 308 307 304 306 306 306 307 307 306 308 310 314 315 316 317 317 316 311 310 314 315 317 309 310 310 311 315 312 316 320 323 326 326 331 327 321 324 322 320 321 321 316 314 313
309 308 306 305 306 307 306 306 304 301 309 311 313 313 318 317 317 315 313 313 316 317 317 319 317 311 312 316 318 313 318 327 332 328 322 309 323 322 318 316 314 313 311 311 312
308 307 305 306 307 307 306 305 302 306 301 311 311 312 314 318 313 312 315 315 316 316 320 319 318 311 312 311 315 315 318 318 319 310 317 314 313 313 312 310 310 310 311 311 311
307 306 305 306 307 306 305 304 304 306 306 305 309 312 314 315 315 312 316 318 319 315 315 317 316 313 310 310 311 313 314 320 318 317 319 316 316 316 314 312 310 309 309 309 309
306 306 305 306 305 306 305 304 304 307 307 308 309 310 314 316 316 315 317 319 318 316 316 315 314 311 311 313 316 315 316 315 318 316 323 314 312 311 313 311 308 308 308 306 308
302 304 305 305 306 305 306 305 303 303 303 307 308 308 308 309 312 315 319 319 317 316 319 318 313 313 314 311 312 313 315 316 319 316 309 314 314 308 307 306 307 307 306 305 306
302 305 305 305 306 306 305 304 303 304 305 307 306 307 307 309 311 313 317 316 316 316 318 317 317 315 316 314 309 313 313 314 315 312 312 315 316 307 305 306 307 307 306 304 303
303 306 305 304 305 304 304 304 304 304 305 306 306 308 308 309 309 311 311 316 316 316 316 314 316 318 319 317 313 315 314 315 315 314 316 314 312 307 307 306 306 306 305 305 304
298 303 301 304 304 304 303 304 304 304 304 306 306 307 308 308 309 310 312 314 316 315 312 315 316 314 309 315 315 315 316 316 316 314 315 314 313 308 306 306 306 306 306 306 306
301 302 299 303 304 304 304 304 304 304 305 306 307 307 307 308 308 312 308 316 317 312 314 316 316 310 311 311 316 316 317 317 315 316 317 314 313 311 307 306 306 306 306 306 306
298 298 303 303 303 304 304 304 303 303 303 303 305 305 307 308 307 307 307 307 308 314 314 316 313 314 317 314 316 318 316 316 316 312 314 315 313 308 308 307 307 308 308 307 306
Wind_Speed
21 19 19 17 18 19 18 17 15 13 13 13 11 9 9 8 9 11 13 10 16 11 15 21 10 9 12 4 2 4 4 10 12 8 9 5 6 3 5 7 4 4 5 16 31
23 22 19 18 19 18 20 18 16 15 13 13 11 8 8 7 8 13 21 15 21 16 20 23 10 9 3 6 3 4 5 10 12 6 8 8 8 7 4 9 4 8 16 27 29
26 24 22 19 20 20 18 19 18 16 14 12 9 8 7 4 3 9 20 17 18 17 13 11 23 12 3 3 7 3 10 9 17 2 5 6 7 8 5 7 8 12 18 20 25
30 27 25 23 22 20 21 21 20 18 13 13 13 8 7 8 9 4 19 29 24 17 17 17 7 9 6 4 7 11 11 17 15 3 1 5 4 7 9 5 11 14 22 20 20
33 29 27 24 24 19 20 20 20 18 15 13 12 10 10 6 9 5 9 26 27 23 18 8 11 7 9 8 5 12 15 9 12 4 5 6 8 6 10 4 1 20 22 17 19
36 32 29 26 24 18 17 19 18 16 13 12 13 12 7 18 7 14 8 20 20 25 20 18 9 7 8 5 6 5 13 14 7 6 5 5 6 10 9 9 10 17 15 15 18
38 35 31 28 24 18 15 15 15 13 12 12 13 14 9 12 4 18 14 24 24 24 20 21 14 6 10 6 6 3 8 16 9 9 6 5 6 6 9 11 10 14 13 14 18
40 39 33 31 24 18 15 14 12 10 8 11 11 9 6 7 13 14 15 18 20 16 8 19 19 7 3 9 6 8 3 6 7 10 5 9 8 15 11 12 11 11 11 14 16
42 40 37 32 26 19 15 11 10 9 8 6 6 6 5 6 14 19 19 17 14 6 5 7 21 4 5 8 4 5 6 13 8 15 5 9 6 9 15 13 11 11 11 13 12
44 41 38 33 28 21 16 11 8 7 8 6 7 4 3 7 8 17 19 22 7 7 2 3 1 6 6 10 16 9 13 7 14 9 9 8 12 5 12 13 13 13 13 14 14
46 42 37 33 29 25 20 11 4 5 12 8 7 7 4 6 11 14 19 14 7 6 10 6 6 12 21 22 13 9 14 20 15 13 12 16 13 15 9 8 9 9 12 13 15
49 43 38 34 30 27 23 7 11 3 5 19 15 12 15 5 4 11 28 12 8 13 7 5 17 7 9 18 22 22 13 19 4 3 6 8 17 15 12 9 13 12 11 16 12
49 45 40 35 30 26 24 23 3 2 2 6 15 15 7 10 8 12 10 12 7 12 18 12 1 9 5 7 19 22 22 18 11 4 3 7 11 14 15 12 12 11 9 10 14
51 47 42 37 25 25 21 22 10 9 2 6 8 8 16 5 8 17 18 7 3 8 16 4 2 10 11 7 13 19 16 18 16 10 5 11 7 17 17 15 13 14 12 10 10
54 50 47 46 17 21 26 22 17 2 2 6 10 5 12 17 11 9 28 3 13 11 6 5 11 12 9 12 10 13 6 11 12 11 4 4 4 6 10 21 22 16 15 14 11
57 54 51 37 25 32 31 28 13 4 9 5 5 9 12 15 13 7 8 3 2 8 5 4 2 3 5 4 4 3 3 5 2 2 4 13 13 6 11 14 19 15 16 16 13
60 59 53 40 21 39 41 14 5 6 4 6 5 5 14 13 17 14 7 5 9 8 8 3 3 1 6 5 5 2 13 2 2 4 5 17 12 9 4 1 9 16 16 15 13
61 58 45 36 39 47 31 9 7 8 7 3 4 5 9 10 9 17 16 10 14 7 6 10 5 11 11 7 8 8 9 4 5 4 3 2 10 5 11 6 5 5 8 4 13
62 47 40 37 49 45 15 11 9 5 17 11 7 3 6 7 4 5 17 17 11 11 11 10 4 7 16 7 9 6 9 3 4 3 4 5 5 7 5 7 4 5 5 5 2
46 33 32 46 47 29 12 12 5 4 4 6 7 8 7 7 7 9 17 20 15 17 9 6 8 5 3 6 2 3 2 3 4 4 5 4 3 4 9 9 8 7 8 8 7
25 10 32 50 38 13 12 7 8 11 8 5 8 5 2 3 13 7 12 12 18 19 5 6 4 5 7 7 12 5 4 6 5 4 4 4 6 6 8 9 11 9 7 7 5
6 4 44 47 12 10 12 10 11 14 7 5 2 4 4 2 1 5 12 13 25 23 13 7 6 5 3 7 5 5 8 9 3 4 2 2 3 2 8 8 10 8 7 6 6
7 6 37 38 9 14 8 12 11 10 10 8 9 8 8 4 2 5 13 24 29 21 17 10 4 7 6 4 4 6 8 9 11 7 5 4 4 0 5 6 6 8 7 7 7
6 9 7 9 3 16 12 18 13 6 8 7 4 3 4 6 7 6 9 7 23 24 17 12 3 8 12 6 12 12 14 17 14 4 2 5 2 5 4 7 8 7 7 7 7
2 5 3 14 10 17 17 14 18 9 10 7 7 10 8 6 4 7 13 16 19 24 6 5 4 3 4 8 9 16 19 21 19 17 7 5 7 8 10 9 10 9 8 7 6
5 8 1 13 15 13 21 15 19 18 12 9 11 14 14 13 14 7 2 10 14 9 7 2 6 4 2 1 11 16 22 21 22 26 22 12 11 5 7 7 7 9 7 7 6
3 4 6 18 17 10 18 18 15 13 13 13 16 11 15 19 11 10 9 13 22 22 20 17 10 12 7 5 7 4 25 29 28 30 30 23 21 6 3 8 9 7 4 6 7
Wind_Direction
237 239 237 237 239 242 249 255 265 268 266 266 276 268 273 254 238 186 205 222 210 185 175 162 179 253 300 286 268 307 257 237 241 205 238 123 188 11 332 112 113 87 40 125 145
231 234 236 233 234 240 247 254 255 264 264 258 273 267 271 254 229 219 221 222 206 180 172 153 137 97 3 307 255 208 232 241 249 204 212 178 184 159 151 138 123 98 94 123 144
225 230 233 228 230 231 241 249 256 259 263 261 268 256 255 219 291 243 229 203 205 195 204 153 126 107 108 10 286 232 240 248 262 310 37 172 198 156 190 187 182 169 146 148 157
223 225 230 227 230 230 233 240 247 257 261 258 246 244 204 189 226 150 205 198 200 187 154 132 115 117 137 205 245 275 265 250 267 128 99 227 196 187 198 171 198 163 150 155 172
220 223 224 228 229 227 226 229 236 248 256 260 247 238 195 222 235 313 201 198 189 171 165 164 150 140 158 154 276 285 272 262 273 155 222 272 203 192 212 145 92 137 147 166 180
216 218 221 223 228 226 225 226 233 244 252 241 240 227 215 237 240 237 213 187 201 197 190 166 181 135 123 124 152 302 320 290 248 217 212 203 234 173 215 164 128 140 157 170 184
213 217 216 220 223 221 217 216 225 234 241 227 222 222 237 235 238 215 201 194 197 209 210 187 149 169 131 128 137 333 323 316 226 224 211 214 222 216 232 146 167 158 169 176 189
212 215 213 215 216 211 207 207 211 216 219 213 219 211 249 269 224 188 181 180 196 229 219 195 170 112 147 117 93 220 187 258 248 205 225 171 228 223 224 163 179 178 178 181 187
211 212 211 210 207 200 193 188 198 203 201 187 194 185 240 238 215 202 185 163 156 139 92 158 155 148 127 146 127 198 204 218 284 193 167 187 234 232 191 174 188 187 190 182 186
209 207 210 205 201 192 183 165 179 180 184 203 236 188 238 216 207 201 181 170 143 121 203 165 184 163 153 165 219 207 211 219 208 205 199 200 254 278 182 179 195 196 196 184 190
206 203 203 197 195 190 167 138 168 201 201 201 193 238 103 170 176 185 177 140 129 176 190 158 202 210 199 194 218 205 206 218 214 215 201 219 228 243 182 188 207 211 194 194 194
202 200 198 192 185 178 172 194 190 36 201 220 242 214 241 160 208 203 162 167 167 189 131 146 221 176 177 217 216 236 253 216 190 270 247 232 239 236 218 203 202 209 209 196 190
193 192 192 186 178 176 186 197 104 74 274 226 214 227 180 170 219 212 209 163 175 162 173 201 120 217 132 242 207 216 230 224 208 148 326 329 269 242 233 213 200 210 222 202 185
186 186 185 173 172 177 187 188 153 137 262 237 197 223 196 200 253 200 216 175 136 185 164 198 128 192 188 220 219 211 216 236 179 154 201 179 272 221 221 223 198 198 205 225 197
181 179 176 173 163 177 171 160 147 168 244 198 168 163 169 181 116 210 196 227 159 151 163 140 164 165 154 210 210 225 63 285 191 179 142 184 266 238 229 218 214 201 197 206 205
175 175 169 169 165 171 159 147 153 141 231 185 127 187 175 198 182 113 186 65 123 121 62 83 47 259 112 92 245 18 25 2 207 148 214 192 183 220 220 202 210 210 203 202 204
169 169 167 169 167 161 149 148 129 209 165 182 174 191 203 193 190 164 153 185 157 130 161 114 109 126 98 103 22 92 119 165 149 239 235 179 202 216 189 214 178 201 203 209 204
164 163 168 168 160 155 155 157 195 190 199 104 128 183 217 197 191 180 163 195 218 179 141 168 189 178 156 186 163 180 180 191 172 203 162 346 222 239 226 245 215 221 128 105 210
161 160 160 166 159 156 157 184 199 183 189 153 121 137 210 217 128 166 189 180 196 172 157 169 138 166 167 136 152 165 222 164 356 230 92 204 259 316 224 230 187 185 157 164 240
160 157 166 164 159 160 166 193 195 127 94 205 164 168 190 200 184 188 197 193 182 198 192 164 118 156 88 90 331 191 359 189 212 231 236 228 261 229 191 193 190 193 192 194 217
154 155 164 163 159 165 191 193 167 131 123 141 201 161 186 212 203 209 204 180 188 184 124 139 112 145 163 175 170 161 203 205 253 242 199 145 247 211 189 164 160 169 167 153 164
130 134 160 157 159 186 198 179 195 216 169 89 127 148 185 155 159 246 215 214 200 184 166 205 119 134 117 75 179 184 184 198 241 258 289 256 256 4 103 113 125 146 167 167 166
115 122 158 164 165 177 151 192 214 188 201 150 203 210 161 174 248 238 227 218 193 190 172 184 131 116 120 104 85 196 199 211 248 291 217 157 248 331 84 111 132 143 162 178 189
127 139 146 175 146 159 160 189 193 196 186 140 188 140 150 197 181 278 297 259 191 189 193 149 153 188 194 180 134 186 197 208 217 231 216 229 120 230 181 139 130 135 154 177 198
90 117 122 171 202 167 180 171 190 185 198 143 202 214 195 228 219 240 276 260 188 185 149 123 140 121 6 136 153 177 185 200 219 238 249 207 250 208 199 183 173 169 176 182 200
114 148 113 158 155 171 177 192 190 199 167 194 214 194 212 228 211 192 325 231 194 156 134 188 175 127 70 336 164 178 178 194 214 227 235 249 229 245 196 152 176 186 191 205 209
102 76 122 155 163 175 197 193 193 188 218 213 205 224 221 226 247 256 221 242 277 188 177 180 159 171 183 147 100 197 196 197 207 212 213 214 217 166 173 184 202 217 208 207 212